Location: Pedholt
(56.0260°N, 10.2097°E)
Time: 02:14:46
(UTC+00:00)

A-11 Canister half - Pass Details

Date: 01 August 2021
Orbit: 1514 x 1685 km, 47.2° (Epoch: 16 September)

Event Time Altitude Azimuth Distance (km) Brightness Sun altitude
Rises 18:53:50 0° 256° (WSW) 4,841 12.4 3.1°
Reaches altitude 10° 18:57:01 10° 251° (WSW) 3,876 11.8 2.7°
Maximum altitude 19:06:31 53° 179° (S) 1,995 9.5 1.5°
Drops below altitude 10° 19:16:12 10° 108° (ESE) 3,951 10.5 0.4°
Sets 19:19:29 0° 103° (ESE) 4,940 11.0 0.0°
